Location: Lafig�re
(44.4503°N, 4.0357°E)
Time: 04:55:54
(UTC+00:00)

Transit 2A Rocket - Pass Details

Date: 25 June 2021
Orbit: 590 x 913 km, 66.7° (Epoch: 26 July)

Event Time Altitude Azimuth Distance (km) Brightness Sun altitude
Exits shadow 21:26:00 13° 97° (E) 1,744 6.5 -15.0°
Drops below altitude 10° 21:27:29 10° 77° (ENE) 1,949 6.9 -15.1°
Sets 21:30:50 0° 50° (NE) 2,899 8.1 -15.4°
